Wind_Speed
11 11 11 11 10 10 9 8 9 9 9 8 7 7 7 7 6 6 6 6 5 5 5 5 5 4 4 3 3 2 2 2 3 4 4 5 6 6 7 7 7 7 8 8 9 9 9 10 10
10 10 10 10 9 8 7 8 9 9 8 8 8 7 7 7 7 6 6 6 6 6 6 6 6 6 6 6 5 4 4 4 4 5 5 6 6 7 7 7 7 7 7 7 7 7 8 9 9
9 9 10 9 8 7 7 7 8 8 8 8 8 8 8 8 8 8 8 8 8 8 8 8 8 8 8 8 7 7 7 7 7 7 7 7 7 8 8 7 7 7 7 7 7 7 7 7 7
10 10 10 8 8 7 7 7 8 8 9 9 10 10 9 10 10 10 10 10 10 11 11 11 11 11 10 10 10 10 10 10 10 9 9 9 9 9 9 8 8 8 7 7 7 6 6 6 6
9 9 10 9 9 9 9 9 8 9 10 11 11 11 11 12 12 12 12 12 13 13 12 13 13 14 13 12 12 13 13 13 13 13 12 12 11 10 10 10 9 9 8 7 6 6 5 5 5
8 9 9 9 10 10 10 10 11 11 12 12 13 13 13 14 13 14 15 15 15 15 14 15 16 16 16 17 16 16 16 16 16 16 15 15 14 13 12 12 11 10 9 8 7 6 6 5 4
8 9 9 10 10 11 12 13 13 13 13 14 14 15 15 16 16 17 18 18 17 17 17 17 19 20 20 20 20 20 20 19 19 19 19 18 18 17 16 14 13 13 12 10 9 8 7 6 6
9 10 10 10 11 12 13 14 15 15 16 17 17 17 18 18 18 18 19 19 20 20 20 20 21 23 23 23 24 24 23 23 23 22 22 22 21 20 19 18 17 15 14 13 12 11 9 8 7
10 11 11 12 13 14 15 16 17 18 19 19 19 20 20 21 21 21 21 22 23 23 24 24 25 25 26 26 26 26 26 27 26 26 25 25 25 24 22 21 20 19 17 16 15 13 12 11 9
10 12 13 14 15 16 18 19 19 20 20 21 22 22 23 23 24 24 24 25 26 27 28 29 29 29 30 30 31 31 30 31 30 29 28 28 28 27 26 25 23 22 20 19 18 16 15 13 12
11 12 14 15 16 17 19 19 20 21 22 22 23 24 25 25 26 27 27 28 28 29 29 30 31 32 33 33 33 34 34 34 34 34 33 31 30 30 29 28 27 25 23 22 21 19 18 16 14
12 13 14 16 17 18 19 20 22 23 23 24 25 25 26 26 27 27 28 28 29 30 31 31 32 32 34 34 35 36 36 36 36 37 36 36 34 33 32 30 30 28 27 25 24 23 21 20 18
13 13 14 16 17 19 20 21 22 24 24 25 25 26 26 27 27 28 28 29 30 30 31 31 32 32 34 34 35 36 38 38 38 38 37 37 36 35 35 33 31 30 29 28 27 26 24 22 21
13 14 15 16 17 19 20 21 23 23 24 24 25 26 26 27 28 28 29 30 31 32 31 31 31 32 32 33 34 35 37 38 38 39 39 39 38 37 36 35 33 33 31 31 30 28 27 25 23
14 15 15 16 17 19 20 21 22 23 23 24 25 26 26 27 28 28 29 30 31 32 32 32 31 31 32 32 33 33 34 36 37 39 39 39 40 40 38 37 36 35 34 33 32 31 29 28 26
14 15 15 16 18 19 20 20 21 22 23 23 24 26 26 26 27 27 28 29 30 30 31 31 31 31 31 31 31 32 33 34 35 37 39 39 40 41 40 39 38 38 37 35 33 32 31 30 29
14 15 15 16 17 18 19 20 21 21 22 23 24 25 25 26 27 28 28 29 29 29 29 30 30 30 30 30 30 30 31 32 33 34 36 38 39 40 41 41 40 40 38 36 35 34 32 31 31
14 15 16 16 17 17 18 19 20 21 22 23 23 24 25 26 27 28 28 28 28 29 29 28 28 27 27 27 28 28 29 30 31 32 33 35 37 39 40 41 42 41 40 39 37 36 35 33 32
14 15 15 15 16 17 17 18 20 20 21 22 23 24 25 26 27 28 28 28 29 29 29 28 26 25 25 24 24 25 25 26 28 30 31 32 34 36 38 40 41 42 41 40 39 38 36 36 35
14 14 14 14 15 16 17 18 19 19 20 21 22 24 25 26 27 28 29 29 28 28 28 27 26 25 24 23 22 22 23 23 24 26 29 30 32 34 36 37 40 41 42 43 41 40 38 36 36
13 13 13 14 14 15 16 16 17 18 19 20 22 23 25 27 27 28 29 29 28 28 28 27 26 25 24 23 22 21 21 22 22 24 26 28 30 32 34 35 37 39 41 42 42 41 41 38 36
12 12 12 13 13 14 15 15 16 17 18 20 22 24 25 27 28 29 29 29 28 28 27 27 27 25 24 23 22 21 21 21 21 22 23 25 27 30 31 33 35 37 39 41 41 41 40 40 38
10 11 11 12 12 13 14 14 15 16 18 20 22 24 26 28 29 29 29 29 29 28 28 27 27 26 25 23 22 22 21 20 20 19 20 21 23 25 28 31 33 36 38 39 41 40 40 40 40
9 10 10 10 11 11 12 13 14 16 18 20 22 25 27 28 28 29 29 29 30 29 29 28 27 26 25 24 23 22 21 19 19 17 16 17 18 21 24 27 31 33 35 38 39 40 40 40 40
8 9 9 9 10 10 11 12 14 16 18 20 23 24 26 27 28 29 29 30 30 30 29 29 28 27 26 25 24 23 21 19 17 15 14 14 15 17 20 23 26 30 33 36 37 38 39 40 40
7 7 8 9 8 9 10 12 14 16 18 20 23 24 25 27 27 28 29 30 30 30 29 29 28 28 28 27 25 24 22 20 18 15 13 12 12 13 15 18 21 25 29 32 35 37 38 39 40
5 6 6 7 7 8 9 11 13 15 17 20 22 24 25 26 27 28 29 29 30 30 29 29 29 29 29 28 27 25 23 22 19 17 14 12 11 10 11 14 17 21 24 28 32 34 36 38 38
4 4 4 5 6 7 8 11 13 15 17 19 21 23 25 26 27 28 29 29 30 30 30 30 29 29 29 28 27 26 25 23 21 19 16 13 10 8 9 11 14 17 20 24 29 31 33 36 37
4 3 3 4 5 7 8 10 12 14 16 18 20 22 24 25 27 28 29 29 30 30 30 30 30 30 30 29 28 27 26 25 22 20 17 14 11 8 8 9 10 13 17 20 24 28 30 33 35
4 2 2 3 5 7 8 10 12 14 16 18 19 21 23 24 26 27 28 29 30 30 30 30 31 31 31 30 29 28 28 27 25 22 19 15 12 9 7 7 8 10 13 16 20 24 27 30 32
Wind_Direction
42 44 47 41 44 47 48 51 52 48 40 34 27 22 21 20 12 1 354 350 349 346 339 332 324 317 311 309 305 290 266 249 238 236 236 236 241 245 247 252 258 264 269 273 276 276 280 282 286
34 37 38 33 36 41 43 40 43 39 30 26 20 13 7 5 358 347 340 333 327 318 313 311 304 297 293 292 290 286 275 267 262 257 252 252 253 253 253 255 258 261 266 271 276 278 279 281 283
23 27 25 24 28 33 32 28 31 26 19 14 9 1 355 350 344 335 326 316 309 302 296 293 290 289 289 286 284 281 275 270 267 264 263 260 258 258 258 257 256 258 262 267 273 278 279 280 279
16 16 12 17 20 19 16 15 18 17 10 4 356 347 342 337 330 323 317 309 302 297 292 290 286 285 284 282 279 274 273 270 266 264 263 261 260 260 260 259 258 258 259 265 270 273 276 279 276
8 6 9 9 5 359 1 -0 1 3 358 350 343 336 331 328 322 315 310 306 298 293 289 289 289 282 277 275 275 273 270 269 266 262 261 260 259 259 259 258 258 258 259 260 263 263 266 273 272
357 358 360 356 353 350 348 349 349 345 341 336 332 327 322 319 314 308 305 302 299 290 285 285 284 279 278 275 272 274 272 269 265 260 259 259 258 257 256 255 255 255 256 257 256 255 256 260 264
348 347 343 339 343 343 340 340 338 334 330 326 324 321 318 313 311 307 303 300 295 291 286 283 279 277 276 275 273 270 267 267 265 260 257 257 257 255 253 252 253 253 252 251 250 249 250 253 254
335 337 332 330 331 332 330 328 328 326 322 320 319 317 314 311 309 304 300 298 293 288 285 283 280 276 274 274 272 268 265 265 263 259 257 255 255 256 252 249 248 250 250 249 247 246 245 247 249
323 323 324 324 324 325 324 322 321 321 320 318 317 315 313 310 306 301 298 295 290 286 283 281 278 276 272 269 269 268 266 264 262 259 257 255 254 254 252 250 248 246 247 247 245 244 244 243 244
312 315 314 317 321 322 322 320 319 319 318 318 316 314 311 308 304 299 295 291 289 286 283 280 277 276 273 270 267 265 264 261 259 258 257 256 255 252 251 251 248 246 246 245 243 242 240 241 241
303 307 310 313 319 320 319 318 319 319 319 318 316 314 311 308 305 301 297 293 290 287 283 279 277 274 272 270 267 264 263 260 258 257 257 257 255 252 251 250 248 246 245 245 242 242 240 240 239
300 305 310 313 315 316 316 317 319 320 320 318 316 314 313 311 309 307 304 300 296 292 288 284 280 276 273 270 267 264 261 260 258 257 256 255 254 252 250 250 246 244 244 243 242 242 242 240 240
300 304 308 309 312 314 316 318 319 320 320 320 319 318 317 315 313 311 308 304 301 298 294 290 286 282 277 273 268 265 261 259 258 256 254 253 252 252 250 251 248 244 243 243 241 241 242 241 240
300 305 308 311 314 315 316 319 321 323 324 323 322 322 321 320 318 315 312 309 306 303 298 294 291 288 285 280 274 269 264 260 258 257 255 253 251 250 249 249 247 244 243 243 242 242 240 238 239
299 304 309 314 316 317 319 322 324 326 327 327 326 326 324 323 321 319 316 314 311 308 305 301 296 291 287 284 279 274 269 264 260 257 255 253 250 248 247 247 246 244 243 243 241 240 239 239 239
299 305 310 314 315 318 322 326 327 329 330 330 330 330 328 328 327 325 323 321 318 314 310 306 300 295 290 286 281 277 272 267 263 259 255 253 250 247 246 245 245 245 244 243 242 240 238 237 237
299 304 310 313 317 322 326 330 331 333 334 334 334 334 334 333 333 331 329 327 324 320 317 312 306 301 295 290 286 282 276 269 265 261 257 254 251 248 245 244 243 243 243 243 241 239 238 236 235
298 304 310 314 321 326 330 332 335 337 338 338 338 338 338 338 337 336 333 331 330 327 325 321 315 309 304 298 292 287 281 274 267 263 259 255 252 248 246 243 242 241 241 241 240 238 237 236 235
299 305 311 316 323 328 333 336 338 340 341 341 341 341 342 341 340 340 338 336 335 333 331 328 324 319 313 307 300 294 289 281 273 266 261 258 252 248 245 242 240 239 239 239 238 237 236 235 234
298 305 311 319 325 331 336 339 341 341 341 342 344 345 345 345 345 345 344 342 341 339 338 335 331 326 320 314 307 300 294 288 280 272 264 260 254 248 244 241 239 237 237 237 237 236 236 235 233
297 305 315 323 329 334 338 342 341 342 344 346 348 349 350 350 348 348 348 347 345 344 342 341 337 332 327 321 314 307 301 295 286 278 270 263 257 250 245 241 238 237 236 236 235 235 234 233 231
296 307 317 324 329 335 339 343 344 346 349 351 353 355 355 354 353 353 352 352 351 349 347 346 343 340 335 329 322 315 308 302 293 284 276 269 260 252 245 241 238 236 234 234 233 233 233 232 232
298 309 318 325 331 338 343 348 353 354 354 356 358 359 358 357 357 357 357 356 356 354 352 350 348 346 342 337 331 325 318 311 303 294 283 272 261 252 246 242 239 236 234 233 232 232 231 231 231
296 309 319 327 334 343 348 355 0 359 360 1 1 0 360 360 360 359 359 360 359 358 357 355 354 352 349 346 342 337 331 323 315 303 291 280 266 254 247 242 238 235 234 233 232 231 230 230 230
295 310 318 330 340 348 353 1 3 3 4 5 4 2 2 2 2 3 3 2 2 1 1 1 0 359 357 355 351 348 344 339 331 319 303 290 275 262 250 243 238 235 234 232 231 230 230 229 229
293 308 319 332 345 354 359 2 4 5 7 8 7 6 6 6 6 7 6 6 6 5 5 4 4 3 3 1 359 357 354 351 346 337 322 306 291 273 257 244 238 236 234 232 231 230 229 229 228
286 303 319 333 350 0 4 5 5 6 7 8 8 8 8 8 8 9 9 9 9 8 8 8 7 6 6 6 5 3 1 359 356 350 341 326 306 285 264 246 240 237 235 232 230 229 229 228 228
273 294 315 334 349 2 6 6 6 7 8 8 9 9 9 10 10 11 11 11 11 12 12 12 12 11 10 10 9 8 6 4 3 359 355 345 328 302 278 259 245 238 234 233 230 228 229 229 229
247 278 315 341 355 2 4 4 5 6 7 7 8 8 9 10 12 13 13 12 13 14 15 15 14 13 12 13 13 12 11 10 10 7 4 360 352 328 299 276 257 241 235 233 231 229 229 229 229
229 259 312 337 351 359 2 4 5 6 6 7 8 8 9 10 12 13 13 14 14 15 15 15 15 15 14 14 15 15 15 15 15 14 11 7 1 351 329 300 272 251 242 236 232 230 229 229 229
Height
5923 5922 5922 5922 5922 5920 5919 5918 5917 5916 5916 5915 5914 5913 5912 5912 5912 5913 5910 5908 5907 5906 5906 5905 5904 5904 5903 5903 5902 5902 5901 5901 5901 5901 5901 5902 5902 5902 5903 5903 5904 5904 5904 5905 5905 5906 5906 5906 5906
5924 5923 5924 5923 5922 5921 5920 5919 5918 5917 5916 5915 5914 5913 5913 5912 5911 5910 5908 5907 5906 5906 5905 5904 5903 5903 5902 5902 5901 5900 5900 5900 5900 5900 5900 5900 5901 5901 5901 5902 5902 5902 5903 5903 5903 5904 5904 5904 5904
5925 5925 5925 5924 5922 5922 5921 5920 5918 5918 5916 5915 5914 5913 5913 5911 5910 5909 5908 5906 5905 5904 5903 5902 5902 5901 5901 5900 5899 5899 5899 5898 5898 5899 5899 5899 5899 5900 5900 5900 5900 5901 5901 5901 5902 5902 5902 5903 5903
5927 5926 5926 5925 5923 5923 5922 5920 5919 5918 5917 5915 5914 5913 5912 5911 5909 5908 5907 5905 5904 5902 5901 5900 5900 5899 5899 5898 5897 5897 5897 5897 5896 5896 5897 5897 5897 5898 5898 5898 5898 5899 5899 5900 5900 5900 5901 5901 5901
5927 5927 5926 5924 5924 5923 5921 5920 5919 5918 5917 5915 5914 5912 5911 5909 5908 5906 5905 5903 5902 5900 5899 5898 5898 5897 5896 5896 5895 5895 5894 5894 5894 5894 5894 5894 5895 5895 5896 5896 5896 5897 5897 5898 5898 5899 5899 5900 5900
5928 5927 5926 5925 5924 5923 5921 5920 5919 5917 5916 5914 5913 5911 5909 5908 5906 5904 5903 5901 5900 5898 5896 5895 5895 5893 5893 5892 5892 5891 5891 5891 5891 5891 5891 5891 5892 5892 5893 5893 5894 5894 5895 5896 5897 5897 5898 5898 5898
5928 5927 5926 5925 5923 5922 5921 5919 5918 5916 5915 5913 5911 5910 5907 5906 5904 5902 5900 5899 5897 5895 5893 5892 5891 5889 5889 5888 5888 5887 5887 5887 5886 5887 5887 5888 5888 5889 5889 5890 5891 5892 5892 5893 5894 5895 5896 5896 5897
5927 5927 5925 5924 5923 5922 5920 5918 5917 5915 5913 5911 5909 5907 5905 5903 5901 5899 5897 5895 5893 5891 5889 5888 5886 5885 5884 5883 5883 5882 5882 5882 5882 5882 5882 5883 5884 5885 5885 5886 5887 5889 5889 5890 5891 5893 5894 5894 5895
5926 5927 5924 5923 5922 5921 5918 5917 5915 5913 5911 5908 5906 5904 5902 5900 5897 5895 5893 5890 5888 5886 5884 5882 5881 5880 5879 5878 5877 5876 5876 5876 5876 5876 5877 5878 5879 5880 5881 5882 5883 5885 5886 5887 5888 5889 5891 5892 5893
5926 5925 5923 5922 5921 5919 5917 5915 5912 5910 5908 5905 5903 5900 5898 5895 5892 5890 5887 5885 5882 5880 5878 5876 5874 5873 5872 5871 5870 5870 5869 5869 5870 5870 5871 5872 5873 5874 5875 5877 5878 5880 5881 5883 5884 5886 5887 5889 5890
5924 5923 5922 5920 5919 5917 5915 5912 5910 5907 5905 5902 5899 5896 5893 5890 5887 5884 5881 5878 5876 5873 5871 5869 5867 5865 5864 5863 5862 5861 5862 5862 5862 5863 5864 5865 5866 5867 5869 5870 5873 5875 5876 5878 5880 5882 5884 5885 5887
5923 5922 5921 5919 5917 5915 5913 5910 5907 5904 5902 5898 5895 5891 5888 5885 5881 5878 5874 5871 5868 5865 5862 5860 5858 5856 5855 5854 5853 5853 5853 5853 5853 5854 5855 5857 5858 5860 5861 5864 5866 5868 5871 5873 5875 5877 5879 5881 5883
5921 5920 5919 5917 5915 5913 5910 5907 5905 5901 5898 5894 5891 5887 5883 5879 5876 5872 5868 5864 5861 5857 5854 5852 5850 5847 5845 5844 5843 5843 5843 5843 5844 5845 5847 5848 5850 5852 5854 5856 5858 5861 5864 5866 5869 5871 5874 5877 5879
5920 5918 5917 5915 5913 5911 5908 5905 5902 5898 5895 5891 5887 5883 5879 5875 5871 5866 5862 5858 5854 5850 5847 5844 5841 5839 5836 5835 5833 5833 5833 5833 5834 5836 5837 5839 5841 5843 5846 5848 5851 5853 5856 5859 5862 5865 5868 5871 5874
5917 5917 5915 5913 5911 5908 5906 5903 5899 5895 5891 5888 5883 5879 5875 5871 5866 5861 5857 5852 5847 5843 5839 5836 5833 5830 5828 5826 5824 5823 5823 5823 5824 5825 5826 5829 5831 5834 5837 5840 5843 5845 5848 5851 5854 5858 5861 5865 5868
5915 5915 5913 5911 5909 5906 5905 5901 5897 5893 5889 5885 5880 5876 5871 5867 5862 5857 5852 5846 5841 5836 5832 5828 5824 5821 5818 5816 5815 5814 5813 5813 5813 5814 5816 5818 5820 5824 5827 5830 5834 5837 5840 5843 5847 5850 5854 5858 5861
5913 5912 5911 5909 5907 5904 5902 5898 5895 5890 5886 5882 5877 5873 5868 5863 5858 5853 5847 5841 5836 5831 5826 5821 5817 5813 5810 5807 5806 5804 5803 5803 5803 5804 5805 5807 5810 5813 5816 5820 5824 5827 5831 5835 5839 5843 5846 5850 5854
5911 5910 5908 5907 5904 5902 5899 5896 5892 5888 5884 5879 5875 5870 5865 5860 5855 5849 5843 5837 5832 5826 5820 5815 5810 5806 5802 5799 5797 5795 5794 5793 5793 5794 5795 5797 5799 5802 5806 5810 5814 5818 5822 5826 5830 5835 5839 5843 5847
5908 5907 5906 5904 5902 5900 5897 5894 5890 5886 5882 5878 5873 5868 5863 5858 5852 5846 5840 5834 5828 5822 5816 5810 5805 5801 5797 5793 5790 5788 5786 5784 5784 5784 5785 5786 5789 5792 5795 5799 5803 5808 5812 5817 5821 5826 5831 5835 5839
5906 5905 5904 5903 5900 5897 5895 5892 5888 5884 5881 5876 5872 5866 5861 5856 5850 5844 5837 5831 5825 5819 5812 5806 5801 5796 5792 5788 5784 5782 5780 5778 5776 5775 5776 5777 5779 5781 5785 5789 5793 5797 5802 5807 5812 5817 5822 5827 5831
5904 5904 5902 5900 5898 5896 5893 5891 5887 5883 5879 5875 5870 5865 5860 5854 5848 5842 5835 5829 5822 5816 5810 5804 5798 5793 5788 5783 5780 5777 5774 5771 5769 5768 5768 5768 5769 5772 5775 5779 5783 5787 5792 5798 5803 5808 5814 5818 5823
5902 5902 5900 5898 5896 5894 5892 5889 5886 5882 5878 5874 5869 5864 5858 5853 5846 5840 5834 5827 5821 5814 5808 5802 5795 5789 5784 5780 5776 5772 5769 5766 5763 5761 5760 5760 5761 5763 5765 5769 5773 5778 5783 5788 5793 5799 5804 5810 5815
5901 5899 5898 5897 5895 5893 5890 5888 5886 5881 5877 5873 5868 5863 5858 5852 5845 5839 5833 5826 5819 5813 5806 5800 5793 5787 5782 5776 5772 5768 5764 5760 5757 5755 5753 5752 5753 5754 5757 5761 5764 5769 5773 5778 5784 5790 5796 5801 5806
5899 5898 5897 5895 5894 5892 5889 5887 5885 5881 5877 5873 5868 5863 5857 5851 5845 5839 5832 5825 5819 5812 5805 5799 5792 5786 5780 5774 5769 5764 5760 5756 5752 5749 5747 5746 5746 5748 5749 5752 5756 5760 5764 5769 5775 5780 5786 5792 5797
5897 5897 5896 5894 5892 5891 5888 5886 5884 5880 5876 5872 5867 5862 5857 5851 5845 5838 5832 5825 5818 5812 5805 5798 5792 5786 5779 5773 5768 5762 5757 5753 5748 5745 5743 5742 5741 5742 5743 5745 5748 5752 5756 5761 5766 5772 5777 5783 5789
5896 5896 5895 5894 5892 5890 5887 5885 5884 5880 5876 5872 5867 5862 5857 5851 5845 5839 5832 5826 5819 5812 5806 5799 5792 5786 5780 5773 5767 5761 5756 5751 5747 5743 5740 5739 5737 5737 5738 5739 5742 5745 5749 5754 5759 5764 5769 5775 5781
5894 5894 5894 5893 5891 5889 5888 5886 5883 5880 5876 5872 5868 5863 5857 5852 5846 5840 5833 5827 5820 5813 5807 5800 5794 5787 5781 5774 5768 5762 5756 5751 5746 5742 5738 5736 5734 5734 5734 5735 5737 5740 5743 5747 5751 5756 5761 5767 5772
5893 5893 5893 5892 5890 5889 5888 5885 5883 5879 5876 5872 5868 5863 5858 5853 5847 5840 5834 5828 5821 5815 5808 5801 5795 5788 5782 5775 5769 5763 5757 5751 5746 5741 5738 5735 5733 5732 5731 5732 5733 5735 5738 5741 5745 5749 5754 5759 5764
5892 5892 5891 5891 5890 5889 5887 5887 5883 5879 5876 5872 5868 5864 5859 5854 5848 5842 5836 5829 5823 5816 5810 5803 5797 5790 5784 5777 5771 5764 5758 5752 5747 5742 5738 5735 5732 5731 5730 5730 5730 5732 5734 5736 5740 5744 5748 5753 5757
5891 5891 5891 5891 5890 5888 5886 5888 5882 5879 5876 5872 5868 5864 5859 5854 5849 5843 5837 5831 5825 5818 5812 5806 5799 5793 5786 5779 5773 5766 5760 5754 5749 5743 5739 5735 5733 5730 5729 5728 5728 5729 5730 5732 5735 5738 5742 5746 5751